Wind_Speed
2 6 8 6 3 4 2 3 5 7 4 10 17 12 13 17 15 14 13 13 13 14 13 12 14 16 15 14 15 16 16 19 16 12 10 8 10 10 11 8 9 10 9 12
5 10 5 8 6 4 1 2 4 6 7 9 3 12 11 17 19 16 15 15 16 13 10 8 13 14 14 15 16 15 16 15 16 10 10 7 6 5 8 11 12 11 16 17
10 4 12 8 9 5 3 3 3 3 2 2 3 4 8 13 13 14 15 14 12 11 10 10 7 7 8 10 11 12 13 12 9 7 6 7 10 12 14 13 14 12 15 16
5 5 9 7 7 5 8 7 4 3 5 4 2 3 3 8 14 16 17 16 13 11 12 11 2 8 6 4 4 3 4 1 0 2 5 7 9 14 19 18 18 11 8 7
5 7 8 11 12 7 5 2 3 2 2 2 5 3 0 2 9 16 18 16 12 12 12 9 9 9 5 3 11 9 10 13 13 15 12 13 15 16 18 15 8 4 3 3
4 1 2 2 7 3 2 3 3 3 2 4 2 6 4 4 2 5 11 13 14 15 13 8 10 8 6 10 16 18 18 18 15 15 10 9 16 24 15 6 3 2 3 3
2 5 2 2 2 4 4 4 3 4 3 1 3 5 8 4 4 6 5 7 15 16 12 10 5 5 10 8 12 12 19 17 12 8 7 5 8 14 3 2 4 4 5 5
9 7 9 7 9 5 5 7 5 5 3 1 2 4 2 2 3 5 3 7 14 15 12 10 8 6 8 9 8 9 6 11 16 16 15 11 12 2 5 7 6 6 6 8
5 6 2 5 6 8 6 5 1 4 1 3 2 4 10 7 2 3 7 11 13 12 12 11 9 9 9 9 7 5 11 12 17 21 24 21 19 9 8 7 5 7 7 7
7 2 2 3 4 4 4 10 4 1 5 5 3 3 6 6 8 5 6 9 9 10 11 9 7 5 5 6 7 9 13 14 17 18 21 19 15 11 8 6 9 9 10 9
8 6 3 4 6 8 4 4 3 2 1 5 5 4 3 4 12 11 9 9 10 9 8 7 6 6 7 9 13 17 16 16 14 17 20 17 14 11 8 9 10 10 9 9
11 10 11 12 1 2 2 2 6 5 5 1 3 4 1 1 10 12 11 11 10 8 9 9 10 10 10 10 14 16 15 14 14 16 16 16 13 11 9 9 9 8 10 12
10 7 7 6 5 3 6 5 6 2 2 7 8 6 3 6 10 10 13 12 9 11 12 11 11 12 12 13 16 17 15 14 14 15 15 14 12 10 9 9 10 10 8 9
13 8 10 10 6 4 7 7 8 11 5 7 10 12 8 11 13 13 13 12 10 11 12 11 11 13 14 15 15 16 15 13 12 13 14 13 11 10 9 9 9 9 10 10
9 11 11 14 13 11 13 9 9 12 11 9 8 11 10 17 19 16 15 13 13 13 12 13 13 13 15 15 14 15 14 13 13 13 11 9 7 7 8 10 12 12 13 14
3 2 6 7 10 10 10 9 10 13 9 11 7 11 4 16 16 16 16 16 15 16 15 14 13 15 14 14 15 14 12 10 9 8 7 7 8 10 11 12 12 14 13 13
3 6 6 6 6 8 8 14 12 8 9 8 10 7 13 19 19 20 19 17 17 17 17 15 14 15 14 14 14 12 10 9 8 8 8 8 9 10 12 12 12 12 12 12
2 3 3 2 9 8 4 1 10 12 5 12 7 6 13 15 15 16 16 17 17 16 16 15 16 17 16 15 13 12 10 10 9 8 9 9 9 10 9 10 10 10 11 13
13 5 3 4 7 2 3 6 9 11 13 14 8 12 14 16 15 13 15 14 17 16 17 18 19 19 18 15 12 11 10 9 8 9 10 8 6 5 6 7 8 9 11 13
9 2 5 4 5 8 6 9 7 3 9 14 14 18 22 20 10 10 17 15 16 20 21 22 21 19 16 13 11 11 10 8 6 6 5 5 5 7 7 8 7 8 7 7
4 3 9 6 4 3 4 7 9 7 6 19 19 21 22 13 3 14 19 16 20 22 23 23 22 19 15 13 11 10 9 8 6 5 5 4 4 5 5 5 5 5 5 6
5 5 4 3 5 7 9 9 10 8 1 17 18 21 18 12 17 22 20 19 19 23 24 23 21 18 15 13 12 12 10 8 6 7 6 4 4 4 3 3 3 5 6 7
4 4 2 6 5 2 15 4 6 6 7 16 20 20 18 20 21 21 19 20 20 26 25 23 22 20 16 14 13 13 11 8 8 7 6 3 1 1 3 4 5 6 7 9
5 4 3 2 6 12 10 14 10 7 10 15 16 22 19 22 22 20 19 18 17 25 24 23 22 19 17 13 11 11 10 8 8 6 3 1 1 3 3 4 5 6 8 9
2 6 3 6 12 8 13 12 8 5 14 16 14 17 21 24 21 22 19 18 22 24 23 22 20 18 17 14 12 11 9 7 5 3 1 1 1 2 2 3 3 4 5 6
5 6 5 4 2 5 3 5 8 11 14 22 26 17 16 21 24 21 18 23 25 25 23 19 17 17 16 14 13 11 9 8 5 3 3 1 0 1 2 3 5 8 10 12
Wind_Direction
121 192 217 161 112 137 178 265 326 286 295 216 226 234 192 191 201 207 207 200 215 225 228 229 221 207 224 237 235 234 236 242 235 235 235 243 249 249 260 259 263 285 279 329
164 214 159 153 161 144 204 339 292 286 327 207 250 234 215 200 206 206 208 210 212 215 221 229 232 225 206 226 232 235 243 243 245 232 250 270 288 291 279 276 280 283 290 289
210 160 160 153 158 180 190 223 299 313 344 115 196 235 209 222 211 207 218 224 225 218 207 210 195 206 212 226 241 238 240 245 251 262 266 296 310 309 311 302 295 301 290 286
221 168 190 184 197 213 276 201 266 301 331 330 321 305 229 231 219 216 220 217 215 198 203 222 81 28 0 120 149 204 249 153 314 342 7 347 326 308 319 312 311 309 311 325
175 178 190 218 232 191 247 173 321 29 223 242 177 256 170 300 236 226 221 219 200 180 183 163 135 120 81 148 123 114 119 111 105 89 76 52 5 314 314 307 307 331 22 4
168 315 205 209 140 186 140 165 87 84 161 224 115 233 269 221 227 257 230 211 185 165 164 155 136 124 95 86 99 117 104 113 122 114 86 68 354 346 311 308 302 329 33 26
161 213 194 194 222 156 189 204 248 242 199 294 52 212 265 213 253 285 299 222 173 171 169 155 140 127 97 110 118 109 118 133 152 128 162 158 298 359 340 356 35 60 55 43
201 208 200 178 223 252 186 221 206 246 223 351 140 234 280 185 348 358 343 162 156 171 168 163 171 139 120 133 133 110 104 115 121 107 98 103 124 43 54 47 41 37 35 19
163 226 244 217 188 195 159 197 100 141 119 232 172 263 259 234 135 62 111 147 165 165 167 177 181 172 159 163 168 135 88 114 114 102 94 96 97 105 78 55 54 39 27 10
190 161 207 142 164 76 246 144 166 208 196 234 190 266 262 183 183 161 156 140 147 153 163 169 160 145 150 121 92 114 114 100 98 97 99 96 92 80 63 52 46 34 18 6
161 219 171 218 197 181 155 174 65 122 276 244 243 231 226 191 173 169 153 146 153 159 161 162 135 117 109 105 109 112 109 107 101 99 95 93 86 75 63 51 42 34 21 15
185 207 224 229 266 356 241 223 214 234 184 215 292 248 82 160 168 152 145 136 127 125 140 135 125 128 117 102 123 119 120 112 106 96 90 81 76 72 61 54 48 40 30 21
174 210 204 204 184 138 222 199 207 184 146 202 221 239 112 140 142 146 144 140 128 127 132 127 124 117 114 117 123 120 115 101 85 75 70 69 63 62 60 53 40 34 28 18
176 190 216 222 223 207 203 197 201 217 207 200 223 239 187 176 160 152 151 143 140 135 134 127 126 131 127 127 121 110 97 89 82 73 67 65 62 57 47 43 38 29 24 21
190 211 202 232 231 215 236 231 197 210 234 222 232 218 241 182 167 163 154 149 143 143 144 143 142 140 138 129 116 101 86 68 55 54 58 65 68 61 50 43 36 31 28 31
183 219 196 240 220 220 239 243 213 227 229 252 255 250 150 158 148 155 160 160 155 154 154 152 146 146 140 128 117 107 102 95 94 99 100 99 80 62 50 51 57 54 54 54
209 173 174 231 192 177 240 235 216 214 219 203 213 227 148 163 164 165 166 166 164 161 157 157 154 148 144 133 120 111 108 113 106 95 89 77 76 75 73 70 59 54 51 54
205 183 192 146 153 221 226 251 221 213 257 199 246 151 170 171 158 163 169 166 168 165 162 156 152 145 141 131 126 124 124 112 109 106 94 83 76 73 75 66 65 62 55 53
215 184 159 193 207 337 207 193 184 190 234 193 181 142 149 140 135 161 179 183 174 166 159 154 149 150 146 137 128 121 114 113 108 86 73 71 74 91 93 83 74 58 51 47
172 233 251 169 200 204 209 187 167 148 250 183 177 161 158 157 162 179 178 172 162 157 151 149 150 147 136 133 139 131 129 130 131 128 123 114 103 96 94 77 56 40 31 28
164 190 221 196 247 255 230 150 148 186 226 176 178 166 164 172 87 140 154 154 154 150 147 147 146 143 142 145 137 142 157 160 142 137 127 120 112 96 69 50 35 11 354 357
211 195 192 164 206 249 159 138 189 209 294 175 169 164 164 118 124 138 145 145 146 143 144 148 144 143 145 151 156 153 157 145 136 124 136 137 114 78 44 20 354 343 339 335
241 235 231 216 212 336 197 305 220 166 166 172 165 163 150 134 141 144 145 145 146 147 148 149 147 147 156 160 160 155 149 151 151 150 147 126 77 345 323 325 324 339 340 346
203 177 226 262 222 236 247 253 277 224 159 173 165 155 150 136 145 143 146 146 146 147 150 151 152 154 152 155 152 146 151 153 155 158 162 245 295 321 317 303 313 331 345 353
7 167 193 263 276 264 254 246 236 212 150 142 141 154 144 141 149 149 146 145 145 148 150 153 157 152 147 148 155 156 157 157 159 150 196 248 308 342 1 5 336 329 330 338
196 192 196 251 351 304 291 325 198 172 165 152 137 152 149 150 145 144 141 145 149 150 149 151 149 147 147 153 155 160 165 169 164 179 190 211 312 345 339 337 337 337 342 331
Height
754 760 770 766 764 766 771 778 781 767 757 766 768 768 769 768 774 778 779 779 779 778 777 782 783 782 787 792 795 798 802 804 807 810 812 815 817 819 820 819 819 820 817 814
761 767 758 757 763 768 774 783 779 767 760 763 770 770 765 763 767 769 772 772 770 772 779 780 778 780 780 786 790 794 797 801 805 808 811 815 816 817 818 817 815 814 810 811
761 757 755 759 770 773 775 779 777 777 766 763 768 771 771 760 763 765 765 764 769 773 777 777 780 782 782 785 789 792 795 798 804 810 811 814 816 816 817 816 811 809 807 806
759 752 758 762 766 762 776 762 768 768 771 785 769 786 774 764 765 764 761 762 766 772 773 772 781 784 787 783 787 791 794 800 804 808 811 814 815 814 815 816 813 808 805 804
758 759 760 763 759 756 765 759 767 768 773 778 779 786 761 771 768 762 757 757 765 771 773 775 780 779 782 784 781 788 792 796 800 804 807 807 812 814 812 815 814 810 805 804
751 746 749 748 750 751 750 761 770 775 776 791 786 781 764 766 764 757 753 756 763 771 772 775 778 778 782 786 783 783 789 798 800 797 801 799 804 809 812 812 812 810 806 805
761 755 747 744 756 753 755 761 788 795 794 791 786 788 759 755 755 758 761 757 762 767 773 776 777 782 784 787 786 787 787 794 797 794 794 792 799 809 812 810 810 807 806 805
770 779 753 742 748 755 756 754 780 813 800 791 786 784 753 753 754 757 756 754 763 767 772 776 778 783 785 790 790 791 795 802 794 793 790 791 791 813 814 813 812 811 807 805
771 771 746 743 737 741 762 767 753 779 794 791 781 770 749 751 758 761 762 763 764 766 771 774 777 781 785 790 792 794 794 802 797 795 790 798 801 812 813 812 812 809 808 805
751 768 750 741 738 744 744 747 770 773 800 802 784 785 763 760 759 762 763 764 766 768 772 774 778 781 785 791 793 792 796 801 798 797 796 799 803 807 810 812 809 807 806 805
743 752 758 749 746 749 756 757 766 760 772 779 786 772 737 748 748 754 762 764 765 768 771 774 779 783 787 790 793 795 800 804 806 803 800 802 805 808 812 812 809 808 808 806
735 743 763 753 737 740 740 744 745 762 782 777 769 760 743 745 743 748 760 764 767 771 773 777 781 784 788 791 794 798 803 806 806 803 804 804 807 809 812 811 811 810 808 805
735 747 766 760 750 748 746 743 741 748 753 774 768 755 749 747 749 752 757 764 772 777 777 780 784 787 790 794 797 799 803 803 802 801 802 804 807 810 812 812 810 808 808 807
722 734 744 758 748 735 747 746 746 741 758 751 749 735 751 749 751 754 757 763 772 776 777 782 786 791 793 796 797 799 800 801 802 804 805 806 810 811 811 810 809 809 806 804
721 736 737 730 726 731 731 736 744 748 735 744 727 740 717 736 740 747 753 761 768 775 778 783 786 791 795 797 798 798 799 800 801 804 807 810 812 812 812 810 808 807 806 802
727 737 741 735 730 733 735 728 731 732 737 738 736 735 723 729 739 750 754 758 763 769 776 783 786 791 794 796 797 800 803 807 809 812 814 814 813 811 811 809 810 810 810 808
729 731 740 740 731 737 747 726 725 723 722 719 739 711 725 735 738 744 749 754 760 765 772 779 786 790 795 798 800 804 807 810 811 813 813 812 812 812 812 812 813 814 814 812
731 734 735 738 739 760 712 709 704 714 714 712 717 718 720 726 732 739 745 751 758 764 771 778 784 791 797 799 802 804 808 809 811 813 812 812 814 813 815 816 816 817 816 813
721 727 739 739 737 729 718 713 711 714 706 705 710 720 723 730 736 745 744 749 753 762 770 777 785 792 795 798 802 805 807 810 812 813 812 814 815 816 817 818 818 818 815 813
725 724 721 741 736 742 701 690 693 696 720 699 705 714 721 723 734 732 741 747 754 763 769 777 784 792 796 800 804 806 809 812 813 814 816 817 818 818 818 817 817 817 816 815
729 730 726 725 725 712 692 691 689 728 711 688 693 705 713 713 712 718 737 749 757 763 771 779 786 791 797 802 805 808 812 813 815 816 817 819 819 819 818 818 817 818 817 815
717 721 721 729 731 730 689 695 702 678 680 679 690 698 706 713 719 727 739 749 757 764 774 780 786 793 799 803 806 809 812 813 816 816 819 821 820 819 819 819 819 817 815 814
722 708 708 706 701 691 678 676 666 667 675 680 685 692 701 710 721 731 741 751 759 766 774 782 788 795 800 803 805 808 810 813 816 818 820 820 819 820 819 818 817 816 814 812
710 713 710 708 681 688 681 675 677 671 670 677 681 690 700 707 722 734 744 751 759 769 777 783 790 795 799 802 806 809 812 815 818 818 819 819 819 819 818 817 816 815 814 813
706 708 705 702 686 685 675 676 672 674 669 680 694 697 700 708 723 732 744 753 763 771 779 784 789 793 798 802 806 809 813 815 818 818 818 819 818 817 816 815 814 814 813 812
704 696 697 688 686 685 681 677 673 676 678 678 674 705 710 712 720 734 745 754 763 770 777 784 789 794 798 802 806 809 811 814 814 815 818 818 817 816 815 813 812 810 809 808